| time (UTC) | temp F | wind direction | speed knots | gust knots | rain 1hr in | rain 24hr in | rain mn in | humidity % | barometer mb |
| 20260504110111 | 67 | 253 | 4.3 | 13.0 | 0.00 | 0.00 | 0.00 | 66 | 1011.9 |
| 20260504100137 | 68 | 236 | 1.7 | 7.0 | 0.00 | 0.00 | 0.00 | 66 | 1012.2 |
| 20260504090114 | 65 | 267 | 2.6 | 7.0 | 0.00 | 0.00 | 0.00 | 70 | 1011.5 |
| 20260504081058 | 64 | 238 | 6.1 | 13.0 | 0.00 | 0.00 | 0.00 | 70 | 1011.7 |
| 20260504045107 | 61 | 252 | 1.7 | 7.0 | 0.00 | 0.00 | 0.00 | 58 | 1010.2 |
| 20260504044027 | 61 | 227 | 1.7 | 3.5 | 0.00 | 0.00 | 0.00 | 58 | 1010.1 |
| 20260504043052 | 61 | 198 | 0.9 | 3.5 | 0.00 | 0.00 | 0.00 | 58 | 1010.2 |
| 20260504042114 | 60 | 208 | 0.9 | 3.5 | 0.00 | 0.00 | 0.00 | 58 | 1010.4 |
| 20260504041054 | 60 | 220 | 1.7 | 3.5 | 0.00 | 0.00 | 0.00 | 58 | 1010.3 |
| 20260504040057 | 60 | 222 | 1.7 | 4.3 | 0.00 | 0.00 | 0.00 | 57 | 1010.2 |
| 20260504035018 | 59 | 214 | 1.7 | 4.3 | 0.00 | 0.00 | 0.00 | 58 | 1010.2 |
| 20260504034042 | 60 | 213 | 0.9 | 4.3 | 0.00 | 0.00 | 0.00 | 57 | 1010.1 |
| 20260504033106 | 59 | 218 | 0.9 | 4.3 | 0.00 | 0.00 | 0.00 | 59 | 1010.0 |
| 20260504032018 | 59 | 229 | 1.7 | 5.2 | 0.00 | 0.00 | 0.00 | 59 | 1010.1 |
| 20260504031042 | 59 | 217 | 0.9 | 4.3 | 0.00 | 0.00 | 0.00 | 60 | 1010.1 |
| 20260504030107 | 59 | 206 | 2.6 | 4.3 | 0.00 | 0.00 | 0.00 | 60 | 1010.0 |
| 20260504025026 | 59 | 209 | 1.7 | 4.3 | 0.00 | 0.00 | 0.00 | 60 | 1010.1 |
| 20260504024051 | 59 | 154 | 1.7 | 3.5 | 0.00 | 0.00 | 0.00 | 60 | 1010.2 |
| 20260504023115 | 59 | 202 | 2.6 | 4.3 | 0.00 | 0.00 | 0.00 | 60 | 1010.2 |
| 20260504022034 | 59 | 185 | 1.7 | 3.5 | 0.00 | 0.00 | 0.00 | 61 | 1010.2 |
| 20260504021058 | 59 | 185 | 1.7 | 2.6 | 0.00 | 0.00 | 0.00 | 60 | 1010.3 |
| 20260504020018 | 59 | 183 | 0.0 | 2.6 | 0.00 | 0.00 | 0.00 | 59 | 1010.4 |
| 20260504015042 | 60 | 222 | 1.7 | 3.5 | 0.00 | 0.00 | 0.00 | 57 | 1010.2 |
| 20260504014106 | 61 | 266 | 0.9 | 2.6 | 0.00 | 0.00 | 0.00 | 57 | 1010.2 |
| 20260504013026 | 61 | 220 | 2.6 | 4.3 | 0.00 | 0.00 | 0.00 | 56 | 1010.2 |
| 20260504012050 | 62 | 309 | 0.9 | 1.7 | 0.00 | 0.00 | 0.00 | 55 | 1010.1 |
| 20260504011134 | 63 | 212 | 1.7 | 4.3 | 0.00 | 0.00 | 0.00 | 51 | 1010.1 |
| 20260504010034 | 63 | 199 | 1.7 | 4.3 | 0.00 | 0.00 | 0.00 | 51 | 1010.2 |
| 20260504005059 | 63 | 147 | 0.9 | 2.6 | 0.00 | 0.00 | 0.00 | 51 | 1010.3 |
| 20260504004018 | 63 | 16 | 0.0 | 1.7 | 0.00 | 0.00 | 0.00 | 51 | 1010.4 |
| 20260504003042 | 65 | 213 | 0.9 | 2.6 | 0.00 | 0.00 | 0.00 | 49 | 1010.4 |
| 20260504002106 | 65 | 186 | 0.9 | 3.5 | 0.00 | 0.00 | 0.00 | 48 | 1010.5 |
| 20260504001026 | 66 | 215 | 0.9 | 4.3 | 0.00 | 0.00 | 0.00 | 48 | 1010.6 |
| 20260504000051 | 65 | 119 | 0.9 | 2.6 | 0.00 | 0.00 | 0.00 | 48 | 1010.6 |
| 20260503235115 | 66 | 70 | 0.9 | 2.6 | 0.00 | 0.00 | 0.00 | 49 | 1010.7 |
| 20260503234054 | 66 | 64 | 0.9 | 3.5 | 0.00 | 0.00 | 0.00 | 49 | 1010.8 |
| 20260503233058 | 65 | 40 | 1.7 | 3.5 | 0.00 | 0.00 | 0.00 | 51 | 1011.1 |
| 20260503232038 | 65 | 36 | 0.9 | 2.6 | 0.00 | 0.00 | 0.00 | 53 | 1011.1 |
| 20260503231042 | 65 | 216 | 0.9 | 2.6 | 0.00 | 0.00 | 0.00 | 54 | 1011.2 |
| 20260503230051 | 65 | 44 | 0.9 | 4.3 | 0.00 | 0.00 | 0.00 | 55 | 1011.3 |
| 20260503225115 | 65 | 47 | 2.6 | 4.3 | 0.00 | 0.00 | 0.00 | 55 | 1011.4 |
| 20260503224034 | 64 | 200 | 1.7 | 4.3 | 0.00 | 0.00 | 0.00 | 58 | 1011.5 |
| 20260503223057 | 64 | 194 | 0.9 | 3.5 | 0.00 | 0.00 | 0.00 | 58 | 1011.6 |
| 20260503222019 | 64 | 238 | 0.9 | 1.7 | 0.00 | 0.00 | 0.00 | 59 | 1011.6 |
| 20260503221042 | 63 | 194 | 0.0 | 1.7 | 0.00 | 0.00 | 0.00 | 61 | 1011.6 |
| 20260503220107 | 63 | 141 | 0.0 | 1.7 | 0.00 | 0.00 | 0.00 | 62 | 1011.9 |
| 20260503215026 | 63 | 0.0 | 0.9 | 0.00 | 0.00 | 0.00 | 62 | 1011.9 | |
| 20260503214050 | 63 | 160 | 0.0 | 1.7 | 0.00 | 0.00 | 0.00 | 62 | 1012.0 |
| 20260503213114 | 62 | 357 | 0.0 | 1.7 | 0.00 | 0.00 | 0.00 | 64 | 1012.2 |
| 20260503212034 | 63 | 193 | 0.9 | 2.6 | 0.00 | 0.00 | 0.00 | 63 | 1012.3 |
| 20260503211059 | 62 | 30 | 0.9 | 2.6 | 0.00 | 0.00 | 0.00 | 66 | 1012.2 |
| 20260503210019 | 61 | 92 | 0.9 | 1.7 | 0.00 | 0.00 | 0.00 | 68 | 1012.6 |
| 20260503205044 | 61 | 69 | 0.9 | 2.6 | 0.00 | 0.00 | 0.00 | 69 | 1012.3 |
| 20260503204106 | 62 | 51 | 1.7 | 3.5 | 0.00 | 0.00 | 0.00 | 67 | 1012.4 |
| 20260503203026 | 62 | 314 | 1.7 | 5.2 | 0.00 | 0.00 | 0.00 | 63 | 1013.5 |
| 20260503202051 | 61 | 245 | 4.3 | 12.2 | 0.00 | 0.00 | 0.00 | 66 | 1013.4 |
| 20260503201115 | 61 | 0.0 | 0.0 | 0.00 | 0.00 | 0.00 | 65 | 1012.4 | |
| 20260503200034 | 61 | 0.0 | 0.0 | 0.00 | 0.00 | 0.00 | 65 | 1012.4 | |
| 20260503195059 | 60 | 0.0 | 0.0 | 0.00 | 0.00 | 0.00 | 65 | 1012.6 | |
| 20260503194114 | 61 | 0.0 | 0.0 | 0.00 | 0.00 | 0.00 | 65 | 1012.5 | |
| 20260503193034 | 62 | 0.0 | 0.9 | 0.00 | 0.00 | 0.00 | 61 | 1012.6 | |
| 20260503192058 | 63 | 0.0 | 0.0 | 0.00 | 0.00 | 0.00 | 62 | 1012.6 | |
| 20260503191114 | 62 | 0.0 | 0.0 | 0.00 | 0.00 | 0.00 | 64 | 1012.6 | |
| 20260503190034 | 63 | 0.0 | 0.0 | 0.00 | 0.00 | 0.00 | 62 | 1012.6 | |
| 20260503185059 | 63 | 0.0 | 0.0 | 0.00 | 0.00 | 0.00 | 62 | 1012.4 | |
| 20260503184122 | 64 | 0.0 | 0.0 | 0.00 | 0.00 | 0.00 | 60 | 1012.3 | |
| 20260503183026 | 66 | 0.0 | 0.0 | 0.00 | 0.00 | 0.00 | 58 | 1012.2 | |
| 20260503182050 | 68 | 0.0 | 0.9 | 0.00 | 0.00 | 0.00 | 53 | 1012.2 | |
| 20260503181114 | 69 | 0.0 | 0.0 | 0.00 | 0.00 | 0.00 | 47 | 1012.2 | |
| 20260503180034 | 70 | 0.0 | 0.0 | 0.00 | 0.00 | 0.00 | 45 | 1012.1 | |
| 20260503175101 | 71 | 0.0 | 0.0 | 0.00 | 0.00 | 0.00 | 44 | 1012.1 | |
| 20260503174019 | 73 | 0.0 | 2.6 | 0.00 | 0.00 | 0.00 | 42 | 1012.1 | |
| 20260503173042 | 75 | 294 | 0.9 | 2.6 | 0.00 | 0.00 | 0.00 | 39 | 1012.1 |
| 20260503172106 | 75 | 356 | 1.7 | 3.5 | 0.00 | 0.00 | 0.00 | 39 | 1012.0 |
| 20260503171027 | 73 | 351 | 1.7 | 4.3 | 0.00 | 0.00 | 0.00 | 41 | 1012.1 |
| 20260503160107 | 80 | 350 | 1.7 | 4.3 | 0.00 | 0.00 | 0.00 | 33 | 1012.2 |
| 20260503150109 | 83 | 352 | 1.7 | 4.3 | 0.00 | 0.00 | 0.00 | 31 | 1012.3 |
| 20260503140147 | 82 | 19 | 1.7 | 4.3 | 0.00 | 0.00 | 0.00 | 31 | 1012.5 |
| 20260503131028 | 81 | 347 | 1.7 | 9.6 | 0.00 | 0.00 | 0.00 | 31 | 1012.8 |